Regional Weather Roundup
Issued by NWS

Home | Current Version | Previous Version | Text Only | Print | Product List | Glossary On
Versions: 1 2 3 4 5 6 7 8 9 10 11 12 13 14 15 16 17 18 19 20 21 22 23 24 25 26 27 28 29 30 31 32 33 34 35 36 37 38 39 40 41 42 43 44 45 46 47 48 49 50
000
ASUS44 KFWD 161015
RWRTX
NORTH TEXAS HOURLY WEATHER ROUNDUP
NATIONAL WEATHER SERVICE FORT WORTH TX
400 AM CST SAT DEC 16 2017

NOTE: "FAIR" INDICATES FEW OR NO CLOUDS BELOW 12,000 FEET WITH NO
SIGNIFICANT WEATHER AND/OR OBSTRUCTIONS TO VISIBILITY.

TXZ118-119-161100-
DALLAS/FORT WORTH METROPLEX

CITY           SKY/WX    TMP DP  RH WIND       PRES   REMARKS
DFW AIRPORT    CLOUDY    40  27  59 S9        30.14S WCI  34
DALLAS LOVE    MOCLDY    43  26  51 S3        30.16F
FTW MEACHAM    CLOUDY    43  26  51 S7        30.14F WCI  39
DAL-EXECUTIVE  CLOUDY    43  26  51 S8        30.15S WCI  38
FTW-ALLIANCE   CLOUDY    42  25  50 S7        30.14S WCI  38
FTW-SPINKS     CLOUDY    41  26  55 S6        30.16F WCI  37
ARLINGTON      CLOUDY    36  26  67 S5        30.16S WCI  32
GRAND PRAIRIE  CLOUDY    39  25  57 S6        30.17F WCI  35
ADDISON        CLOUDY    39  26  59 CALM      30.18S
MESQUITE       PTCLDY    31  25  78 S6        30.19S WCI  25
LANCASTER      PTCLDY    37  24  61 CALM      30.18F
$$

TXZ091>094-102>105-117-120-121-131>134-161100-
NORTH CENTRAL TEXAS

CITY           SKY/WX    TMP DP  RH WIND       PRES   REMARKS
SHRMAN/DENISON CLOUDY    40  25  55 S12       30.14S WCI  33
GAINESVILLE    CLOUDY    31  22  68 CALM      30.14F
BOWIE          CLOUDY    31  23  72 CALM      30.11S
BRIDGEPORT     CLOUDY    40  23  52 SW3       30.14F
DECATUR        CLOUDY    42  23  46 S14       30.11F WCI  35
DENTON         CLOUDY    37  25  61 S3        30.15R
MCKINNEY       CLOUDY    31  26  82 S6        30.16S WCI  25
BONHAM         CLOUDY    37  25  62 S10       30.15S WCI  29
GREENVILLE     PTCLDY    34  28  80 S5        30.18S WCI  30
ROCKWALL       PTCLDY    38  26  62 S8        30.18R WCI  32
TERRELL        CLOUDY    34  27  75 S5        30.19S WCI  30
WAXAHACHIE     CLOUDY    38  28  65 CALM      30.18F
CLEBURNE       CLOUDY    36  27  69 S5        30.16F WCI  32
GRANBURY       CLOUDY    39  25  57 CALM      30.15F
$$

TXZ083>090-098>101-113>116-127>130-139>142-154-155-161100-
WESTERN NORTH TEXAS

CITY           SKY/WX    TMP DP  RH WIND       PRES   REMARKS
WICHITA FALLS  PTCLDY    33  22  63 S9        30.07F WCI  25
WF-KICKAPOO    PTCLDY    37  23  56 SW7       30.11F WCI  32
VERNON         CLOUDY    33  19  57 S8        30.06F WCI  25
ABILENE        PTCLDY    36  23  59 SE8       30.08F WCI  30
ABILENE-DYESS  MOCLDY    38  23  55 S6        30.07F WCI  33
GRAHAM           N/A     29  23  75 CALM      30.10S
BRECKENRIDGE   CLOUDY    42  24  50 S7        30.11F WCI  37
CISCO          PTCLDY    37  23  56 S7        30.12F WCI  32
EASTLAND       PTCLDY    25  20  82 CALM      30.11F
RANGER         PTCLDY    35  25  67 SW6       30.12F WCI  30
MINERAL WELLS  PTCLDY    30  20  66 CALM      30.12F
STEPHENVILLE   PTCLDY    35  24  63 CALM      30.16F
COMANCHE       CLOUDY    42  27  56 SW7       30.13F WCI  37
BROWNWOOD      CLOUDY    28  23  80 CALM      30.15S
COLEMAN        PTCLDY    34  22  61 S6        30.13S WCI  29
$$

TXZ143>147-156>162-174-175-161100-
CENTRAL TEXAS

CITY           SKY/WX    TMP DP  RH WIND       PRES   REMARKS
WACO           PTCLDY    43  31  62 S9        30.18F WCI  38
WACO-MCGREGOR  PTCLDY    39  29  67 SW5       30.17F WCI  36
HILLSBORO      PTCLDY    39  28  66 S5        30.17F WCI  35
CORSICANA      PTCLDY    38  28  67 S8        30.21S WCI  32
MEXIA          PTCLDY    36  27  70 SE6       30.19F WCI  31
HEARNE         CLOUDY    37  34  89 CALM      30.21F
CAMERON        CLOUDY    43  33  66 S7        30.20F WCI  39
TEMPLE         CLOUDY    38  31  76 S7        30.18F WCI  33
KILLEEN        CLOUDY    40  31  69 S6        30.16F WCI  36
KILLEEN-SKYLRK CLOUDY    40  32  73 S7        30.18F WCI  35
FORT HOOD      CLOUDY    41  31  67 S3        30.14F
GATESVILLE     CLOUDY    39  28  65 CALM      30.17F
HAMILTON       CLOUDY    37  29  71 S6        30.15F WCI  33
LAMPASAS       PTCLDY    38  30  73 CALM      30.15F
$$

TXZ095>097-106>112-122>126-135>138-148>153-164>167-161100-
EAST TEXAS

CITY           SKY/WX    TMP DP  RH WIND       PRES   REMARKS
PARIS          CLOUDY    31  26  82 S8        30.17S WCI  23
SULPHUR SPRNGS CLOUDY    39  29  67 S9        30.19F WCI  33
MOUNT PLEASANT MOCLDY    29  27  92 SE3       30.20F
GILMER         CLOUDY    32  27  83 S3        30.20S
MINEOLA        CLOUDY    28  25  86 CALM      30.20S
TYLER          PTCLDY    35  28  75 S7        30.20S WCI  29
LONGVIEW       PTCLDY    33  30  88 S7        30.20S WCI  27
MARSHALL       CLOUDY    28  26  93 CALM      30.24S
ATHENS         CLOUDY    28  25  86 CALM      30.20S
PALESTINE      CLOUDY    37  31  79 SE3       30.23S
JACKSONVILLE   PTCLDY    40  32  75 S6        30.21F WCI  35
HENDERSON      CLOUDY    30  28  94 CALM      30.22F
CENTER         MOSUNNY   30  28  95 CALM      30.24S
NACOGDOCHES    CLOUDY    27  26  96 CALM      30.24S
LUFKIN         CLOUDY    34  32  92 CALM      30.23F
$$

SUPPLEMENTAL OBSERVATIONS (NWS FORT WORTH AREA)

CITY           SKY/WX    TMP DP  RH WIND       PRES   REMARKS
DENISON DAM      N/A     45  27  49 SW14        N/A  WCI  38
CADDO GRASSLND   N/A     39  28  65 S8          N/A  WCI  34
PAT MAYSE LAKE   N/A     41  32  70 S12         N/A  WCI  34
GREENVILLE       N/A     37  28  70 S5          N/A  WCI  34
CEDAR HILL       N/A     45  27  49 S6G14       N/A
LBJ GRASSLAND    N/A     37  23  56 SE6         N/A  WCI  33
COMANCHE         N/A     43  27  52 S8          N/A  WCI  38
MCGREGOR         N/A     39  28  65 S5          N/A  WCI  36
LAKE LIMESTONE   N/A     36  32  87 E2          N/A
ATHENS           N/A     39  30  70 S3          N/A
$$

SUPPLEMENTAL OBSERVATIONS (NWS NORMAN AREA)

CITY           SKY/WX    TMP DP  RH WIND       PRES   REMARKS
GOODLETT         N/A     29  21  73 S8        30.02F WCI  21
ODELL            N/A     37  24  58 S13       30.04F WCI  29
CROWELL          N/A     31  20  65 SW7       30.06F WCI  24
KNOX CITY        N/A     34  20  58 SW8       30.07F WCI  27
SEYMOUR          N/A     34  22  62 S7        30.08F WCI  28
MILLERS CREEK    N/A     32  25  74 S7          N/A  WCI  26
$$

SUPPLEMENTAL OBSERVATIONS (NWS SAN ANGELO AREA)

CITY           SKY/WX    TMP DP  RH WIND       PRES   REMARKS
WEINERT          N/A     33  20  59 SW9       30.07F WCI  25
HASKELL          N/A     29  19  66 SW6       30.08F WCI  22
THROCKMORTON     N/A     36  22  58 S9        30.10F WCI  29
STAMFORD         N/A     31  20  66 S5        30.09F WCI  26
CLYDE            N/A     39  23  51 S12       30.10F WCI  32
HAMBY            N/A     36  21  55 S8          N/A  WCI  29
IVIE RESERVOIR   N/A     39  30  70 S7          N/A  WCI  34
COLORADO BEND    N/A     39  28  65 SW7         N/A  WCI  34
$$

SUPPLEMENTAL OBSERVATIONS (NWS SHREVEPORT AREA)

CITY           SKY/WX    TMP DP  RH WIND       PRES   REMARKS
CADDO LAKE       N/A     27  25  93 CALM        N/A
GILMER           N/A     30  27  86 S1          N/A
HENDERSON        N/A     30  28  93 CALM        N/A
LUFKIN           N/A     32  32 100 MISG        N/A
N SABINE NF      N/A     32  32 100 MISG        N/A
S SABINE NF      N/A     32  32 100 CALM        N/A
$$

SUPPLEMENTAL OBSERVATIONS ARE A COLLECTION OF AUTOMATED INSTRUMENTS
THAT ARE MAINTAINED BY A VARIETY OF FEDERAL AND STATE AGENCIES.
CERTAIN ELEMENTS...SUCH AS HUMIDITY VALUES AND SUSTAINED WIND
SPEEDS...MAY BE APPROXIMATED.





USA.gov is the U.S. government's official web portal to all federal, state and local government web resources and services.